Total_Precipitation_Accumulation
0.01 0.01 0.07 0.09 0.11 0.15 0.25 0.34 0.42 0.40 0.37 0.33 0.23 0.18 0.17 0.16 0.17 0.16 0.16 0.19 0.29 0.33 0.30 0.26 0.25 0.26 0.25 0.25 0.27 0.31 0.36 0.42 0.44 0.47 0.52 0.49 0.38 0.38 0.49 0.55 0.44 0.50 0.26
0.00 0.01 0.07 0.11 0.10 0.10 0.18 0.27 0.38 0.42 0.47 0.35 0.24 0.20 0.19 0.15 0.14 0.14 0.11 0.13 0.19 0.22 0.21 0.23 0.26 0.27 0.29 0.30 0.36 0.44 0.42 0.39 0.48 0.52 0.55 0.49 0.45 0.44 0.42 0.46 0.41 0.44 0.28
0.00 0.01 0.07 0.13 0.11 0.10 0.18 0.27 0.36 0.41 0.50 0.39 0.30 0.22 0.16 0.12 0.14 0.15 0.11 0.14 0.20 0.15 0.11 0.18 0.29 0.33 0.36 0.39 0.46 0.52 0.49 0.45 0.50 0.54 0.64 0.78 0.50 0.42 0.41 0.41 0.43 0.35 0.33
0.00 0.02 0.08 0.12 0.11 0.13 0.20 0.28 0.35 0.41 0.51 0.43 0.30 0.17 0.10 0.10 0.14 0.16 0.26 0.34 0.24 0.11 0.10 0.16 0.29 0.32 0.32 0.38 0.45 0.45 0.44 0.44 0.47 0.46 0.59 0.77 0.68 0.45 0.45 0.47 0.48 0.38 0.34
0.00 0.04 0.11 0.13 0.10 0.13 0.22 0.35 0.39 0.46 0.50 0.42 0.29 0.14 0.09 0.12 0.17 0.27 0.38 0.32 0.16 0.08 0.09 0.14 0.24 0.28 0.25 0.25 0.36 0.39 0.41 0.47 0.52 0.51 0.66 0.82 0.84 0.59 0.48 0.46 0.42 0.37 0.38
0.00 0.02 0.10 0.14 0.10 0.14 0.27 0.43 0.44 0.47 0.52 0.47 0.29 0.14 0.12 0.14 0.16 0.22 0.31 0.27 0.12 0.05 0.05 0.09 0.19 0.24 0.22 0.21 0.28 0.37 0.41 0.49 0.48 0.52 0.69 0.74 0.82 0.56 0.44 0.48 0.53 0.47 0.43
0.00 0.02 0.06 0.12 0.10 0.15 0.30 0.42 0.45 0.50 0.52 0.47 0.28 0.19 0.17 0.17 0.13 0.18 0.21 0.19 0.07 0.03 0.03 0.06 0.13 0.17 0.17 0.19 0.23 0.29 0.35 0.34 0.34 0.47 0.61 0.73 0.68 0.51 0.45 0.58 0.68 0.54 0.46
0.00 0.01 0.04 0.10 0.14 0.19 0.28 0.35 0.40 0.47 0.51 0.45 0.27 0.21 0.20 0.19 0.16 0.16 0.17 0.13 0.05 0.03 0.02 0.03 0.07 0.10 0.11 0.15 0.20 0.25 0.27 0.24 0.26 0.33 0.43 0.60 0.64 0.55 0.47 0.57 0.71 0.63 0.57
0.01 0.01 0.04 0.08 0.10 0.19 0.28 0.32 0.35 0.40 0.44 0.45 0.30 0.22 0.22 0.18 0.12 0.11 0.09 0.05 0.02 0.02 0.02 0.02 0.04 0.04 0.06 0.12 0.16 0.23 0.22 0.18 0.20 0.24 0.25 0.42 0.55 0.51 0.41 0.47 0.57 0.58 0.61
0.03 0.01 0.02 0.04 0.07 0.11 0.16 0.26 0.35 0.39 0.41 0.45 0.34 0.25 0.21 0.13 0.08 0.07 0.04 0.02 0.01 0.01 0.01 0.01 0.02 0.02 0.04 0.11 0.13 0.15 0.17 0.16 0.19 0.17 0.19 0.27 0.42 0.38 0.31 0.34 0.38 0.43 0.44
0.04 0.03 0.03 0.03 0.03 0.07 0.11 0.14 0.30 0.38 0.44 0.47 0.38 0.30 0.22 0.20 0.13 0.07 0.03 0.04 0.02 0.01 0.01 0.02 0.03 0.03 0.03 0.07 0.08 0.07 0.08 0.15 0.18 0.17 0.16 0.21 0.30 0.29 0.27 0.25 0.30 0.31 0.33
0.14 0.10 0.08 0.07 0.05 0.04 0.08 0.18 0.30 0.31 0.27 0.30 0.45 0.39 0.27 0.28 0.21 0.05 0.03 0.04 0.03 0.02 0.02 0.03 0.04 0.02 0.01 0.01 0.01 0.03 0.05 0.11 0.15 0.16 0.14 0.24 0.27 0.21 0.21 0.20 0.20 0.23 0.23
0.23 0.18 0.14 0.12 0.09 0.08 0.14 0.22 0.33 0.44 0.43 0.37 0.35 0.33 0.27 0.16 0.06 0.03 0.05 0.06 0.05 0.05 0.03 0.02 0.01 0.00 0.00 0.00 0.00 0.01 0.03 0.05 0.11 0.14 0.15 0.32 0.37 0.30 0.20 0.16 0.14 0.15 0.17
0.30 0.31 0.25 0.18 0.16 0.12 0.12 0.13 0.19 0.27 0.36 0.38 0.23 0.18 0.16 0.13 0.08 0.04 0.05 0.06 0.06 0.06 0.04 0.01 0.00 0.00 0.00 0.01 0.03 0.05 0.04 0.04 0.12 0.17 0.22 0.40 0.52 0.34 0.23 0.19 0.16 0.16 0.18
0.36 0.42 0.38 0.29 0.26 0.22 0.19 0.13 0.10 0.18 0.29 0.34 0.32 0.23 0.17 0.11 0.09 0.05 0.03 0.03 0.03 0.03 0.02 0.01 0.00 0.00 0.00 0.01 0.04 0.06 0.05 0.06 0.13 0.17 0.27 0.46 0.70 0.70 0.46 0.31 0.22 0.17 0.18
0.38 0.46 0.45 0.43 0.42 0.36 0.28 0.23 0.23 0.26 0.31 0.34 0.34 0.26 0.20 0.14 0.11 0.08 0.05 0.03 0.03 0.04 0.04 0.02 0.01 0.00 0.00 0.00 0.02 0.03 0.03 0.04 0.08 0.13 0.28 0.44 0.53 0.62 0.70 0.60 0.44 0.33 0.23
0.39 0.41 0.42 0.43 0.49 0.47 0.45 0.41 0.38 0.42 0.41 0.42 0.40 0.31 0.24 0.14 0.12 0.11 0.09 0.09 0.09 0.05 0.03 0.02 0.02 0.01 0.00 0.01 0.01 0.01 0.01 0.02 0.03 0.07 0.13 0.25 0.24 0.24 0.41 0.57 0.57 0.49 0.39
0.36 0.36 0.41 0.39 0.45 0.53 0.56 0.58 0.60 0.61 0.61 0.64 0.57 0.45 0.38 0.25 0.20 0.20 0.18 0.19 0.21 0.11 0.05 0.05 0.05 0.03 0.02 0.01 0.01 0.01 0.00 0.01 0.01 0.02 0.04 0.07 0.09 0.11 0.17 0.19 0.22 0.26 0.36
0.34 0.35 0.39 0.43 0.48 0.53 0.58 0.68 0.75 0.81 0.86 0.97 0.92 0.80 0.68 0.47 0.38 0.37 0.39 0.36 0.31 0.25 0.19 0.11 0.08 0.07 0.08 0.06 0.03 0.02 0.01 0.01 0.01 0.01 0.02 0.03 0.03 0.05 0.10 0.04 0.05 0.05 0.06
0.33 0.35 0.39 0.47 0.54 0.63 0.78 0.99 1.20 1.25 1.41 1.63 1.54 1.35 1.11 0.85 0.73 0.73 0.71 0.62 0.53 0.52 0.51 0.27 0.22 0.18 0.15 0.12 0.06 0.04 0.02 0.02 0.01 0.01 0.02 0.02 0.01 0.01 0.02 0.01 0.01 0.01 0.02
0.23 0.26 0.33 0.39 0.49 0.60 0.81 1.13 1.54 1.74 1.83 1.84 1.86 1.74 1.49 1.23 1.17 1.20 1.12 1.04 0.93 0.87 0.76 0.58 0.54 0.45 0.31 0.17 0.21 0.22 0.12 0.05 0.03 0.02 0.02 0.02 0.03 0.02 0.01 0.00 0.01 0.01 0.02
0.14 0.16 0.25 0.32 0.41 0.54 0.80 1.11 1.45 1.80 1.88 1.86 1.84 1.79 1.66 1.53 1.47 1.45 1.55 1.55 1.42 1.40 1.31 1.04 1.01 0.93 0.65 0.41 0.50 0.62 0.41 0.24 0.11 0.05 0.03 0.03 0.03 0.03 0.02 0.01 0.01 0.00 0.02
0.10 0.11 0.17 0.22 0.37 0.64 0.96 1.27 1.46 1.74 1.86 1.91 1.83 1.83 1.84 1.79 1.67 1.63 1.68 1.75 1.66 1.60 1.60 1.54 1.39 1.34 1.11 0.75 0.60 0.69 0.63 0.52 0.33 0.11 0.04 0.04 0.04 0.04 0.04 0.03 0.01 0.01 0.01
0.07 0.08 0.12 0.18 0.37 0.70 1.02 1.26 1.50 1.84 1.93 1.84 1.87 1.88 1.89 1.88 1.82 1.84 1.80 1.85 1.79 1.69 1.70 1.69 1.53 1.52 1.47 1.14 0.87 0.66 0.54 0.52 0.44 0.29 0.13 0.07 0.08 0.06 0.05 0.05 0.03 0.02 0.01
0.08 0.09 0.16 0.28 0.47 0.71 0.91 1.15 1.49 1.73 1.83 1.89 1.81 1.85 1.86 1.90 1.88 1.87 1.89 1.97 1.91 1.80 1.72 1.81 1.72 1.69 1.57 1.45 1.25 1.06 0.91 0.74 0.47 0.43 0.38 0.21 0.11 0.07 0.07 0.06 0.06 0.04 0.03
0.15 0.20 0.27 0.42 0.57 0.76 0.92 1.10 1.26 1.48 1.62 1.74 1.75 1.73 1.73 1.76 1.82 1.72 1.65 1.72 1.72 1.69 1.66 1.73 1.77 1.79 1.71 1.69 1.50 1.20 1.07 0.93 0.74 0.67 0.56 0.42 0.27 0.12 0.08 0.06 0.06 0.06 0.04